Regional Weather Roundup
Issued by NWS

Home | Current Version | Previous Version | Graphics & Text | Print | Product List | Glossary On
Versions: 1 2 3 4 5 6 7 8 9 10 11 12 13 14 15 16 17 18 19 20 21 22 23 24 25 26 27 28 29 30 31 32 33 34 35 36 37 38 39 40 41 42 43 44 45 46 47 48 49 50
000
ASUS43 KTOP 290959
RWRKS

WEATHER ROUNDUP FOR KANSAS
NATIONAL WEATHER SERVICE GOODLAND KS
500 AM CDT WED JUL 29 2015

NOTE:  "FAIR" INDICATES FEW OR NO CLOUDS BELOW 12,000 FEET WITH NO
SIGNIFICANT WEATHER AND/OR OBSTRUCTIONS TO VISIBILITY.

KSZ001>006-013>018-027>032-041>047-291100-
NORTHWEST KANSAS

CITY           SKY/WX    TMP DP  RH WIND       PRES   REMARKS
GOODLAND       CLOUDY    61  51  70 SE5       30.24R
HAYS           CLOUDY    68  55  64 NE7       30.13S
HILL CITY      MOCLDY    64  58  80 NE7       30.18R
RUSSELL        CLOUDY    68  59  73 NE14      30.10F
$$

KSZ061>065-074>080-084>089-291100-
SOUTHWEST KANSAS

CITY           SKY/WX    TMP DP  RH WIND       PRES   REMARKS
DODGE CITY     TSTM      64  60  87 NW20G29   30.20R FOG
ELKHART          N/A     66  60  81 N8          N/A
GARDEN CITY    RAIN      66  61  84 N10       30.21R
GREAT BEND     CLOUDY    63  55  77 NE13      30.10S
LIBERAL        CLOUDY    66  59  77 N16G22    30.12R
$$

KSZ066>073-081>083-090>101-291100-
SOUTHEAST KANSAS

CITY           SKY/WX    TMP DP  RH WIND       PRES   REMARKS
CHANUTE        MOCLDY    76  73  91 CALM      30.01R
COFFEYVILLE    CLEAR     73  71  93 E5        30.00R
HUTCHINSON     TSTM      66  61  84 N15G24    30.07R
MEDICINE LODGE   N/A     76  68  76 NE21G29   30.01R
NEWTON         MOCLDY    72  63  73 NE13      30.07R
PARSONS        MOCLDY    75  74  96 E3        30.02R
WICHITA INTL   CLOUDY    79  70  74 N9        30.02R
WICHITA JABRA  PTCLDY    75  70  84 N13       30.02R
WINFIELD       MOCLDY    78  68  71 CALM      30.01R
$$

KSZ007>012-019>026-033>040-048>060-102>105-291100-
NORTHEAST KANSAS

CITY           SKY/WX    TMP DP  RH WIND       PRES   REMARKS
CONCORDIA      CLOUDY    65  61  87 N6        30.11R
EMPORIA        CLOUDY    75  69  81 NE16      30.04R THUNDER
LAWRENCE       LGT RAIN  70  68  93 E6        30.08S
MANHATTAN      CLOUDY    69  67  93 SE9       30.08R
OLATHE IND     TSTM      70  68  93 N9        30.10S FOG
OLATHE EXE     TSTM      71  69  93 N3        30.11R
SALINA         TSTM      67  63  87 E12       30.08S
TOPEKA BILLARD TSTM      70  70 100 E9        30.06F FOG
TOPEKA FORBES  LGT RAIN  72  69  90 E8        30.07F
$$



USA.gov is the U.S. government's official web portal to all federal, state and local government web resources and services.